Retour au catalogue

DELTA 1 DEB

ActifLEO
NORAD 7026·DEBRIS·🇺🇸 United States

Lancé Nov 6, 1973 depuis Vandenberg Space Force Base

Loading…

Prochains Passages (prochaines 24 heures)

TLE

FraisSource: Space-Track

Époque: Sep 14, 2026, 14:51 UTC

1 07026U 73086S   26257.61919587  .00000871  00000-0  48803-2 0  9998
2 07026 102.0920  17.3627 0123720 332.3160  41.7668 12.63945056425936

Suivez DELTA 1 DEB en temps réel avec AllMySat

Download on the App Store